Flag for Canada Weather past 2 weeks in Brandon, Manitoba, Canada

Now
-17 °F

Passing clouds.


Feels Like: -17 °F
Forecast: -20 / -5 °F
Wind: 2 mph from West

Location: Brandon

Current Time: Feb 1, 2015 at 3:46:06 AM

Latest Report: Feb 1, 2015 at 3:00 AM


Visibility: 15 mi

Pressure: 30.74 "Hg

Humidity: 69%

Dew point: -24 °F

Location of BrandonLocation

Historic Weather in Brandon — Graph

°F

Brandon temperature yesterday

Maximum temperature yesterday: 7 °F (at 12:00 AM)
Minimum temperature yesterday: -22 °F (at 11:00 PM)
Average temperature yesterday: -8 °F

Past Weeks' High & Low Weather Summary

 TemperatureHumidityPressure
High37 °F (Jan 22, 5:00 PM)100% (Jan 17, 3:00 AM)30.75 "Hg (Jan 17, 3:00 AM)
Low-22 °F (Jan 31, 11:00 PM)57% (Jan 31, 6:00 PM)29.42 "Hg (Jan 17, 2:00 AM)
Average19 °F86%30.06 "Hg
* Reported Jan 17 2:00 AM — Feb 1 2:00 AM, Brandon, Weather by CustomWeather, © 2014

Note: Actual official high and low records may vary slightly from our data, if they occured in-between our weather recording intervals... More about our weather records

Advertising

Brandon weather history for previous 24 hours

 ConditionsComfort  
Time TempWeatherWind HumidityBarometerVisibility
2:00 AM
Feb 1
-15 °FPassing clouds.2 mph69%30.74 "Hg15 mi
1:00 AM-15 °FPartly cloudy.5 mph69%30.74 "Hg15 mi
12:00 AM-17 °FPartly cloudy.6 mph69%30.75 "Hg15 mi
11:00 PM
Jan 31
-22 °FPassing clouds.5 mph75%30.74 "Hg15 mi
10:00 PM-20 °FPassing clouds.6 mph68%30.75 "Hg15 mi
9:00 PM-20 °FPassing clouds.3 mph75%30.74 "Hg15 mi
8:00 PM-18 °FPassing clouds.No wind62%30.73 "Hg15 mi
7:00 PM-17 °FPassing clouds.5 mph63%30.72 "Hg15 mi
6:00 PM-13 °FPassing clouds.7 mph57%30.71 "Hg15 mi
5:00 PM-11 °FOvercast.6 mph58%30.69 "Hg15 mi
4:00 PM-9 °FPartly sunny.9 mph58%30.67 "Hg15 mi
3:00 PM-9 °FPartly sunny.10 mph58%30.68 "Hg15 mi
2:00 PM-9 °FScattered clouds.12 mph64%30.67 "Hg15 mi
1:00 PM-9 °FScattered clouds.13 mph64%30.68 "Hg15 mi
12:00 PM-9 °FPartly sunny.15 mph70%30.68 "Hg15 mi
11:00 AM-9 °FPartly sunny.17 mph64%30.67 "Hg15 mi
10:00 AM-9 °FPartly sunny.15 mph70%30.66 "Hg15 mi
9:00 AM-9 °FBroken clouds.14 mph77%30.63 "Hg15 mi
8:00 AM-8 °FPassing clouds.16 mph70%30.60 "Hg15 mi
7:00 AM-4 °FPassing clouds.10 mph71%30.57 "Hg15 mi
6:00 AM-2 °FPassing clouds.13 mph65%30.54 "Hg15 mi
5:00 AM0 °FPartly cloudy.8 mph71%30.51 "Hg15 mi
4:00 AM3 °FOvercast.14 mph72%30.49 "Hg15 mi
3:00 AM3 °FPartly cloudy.7 mph72%30.48 "Hg15 mi
Weather by CustomWeather, © 2014

See weather overviewHow to use our weather pages